Home > Weather > Cape Coral > Past weeks

Flag for USA Past Weather in Cape Coral, Florida, USA — Yesterday and Last 2 Weeks

Now
74 °F

Passing clouds.


Feels Like: 71 °F
Forecast: 76 / 89 °F
Wind: 9 mph from Southeast

Location: Page Field

Current Time: Jun 26, 2016 at 8:32:23 PM

Latest Report: Jun 26, 2016 at 7:53 PM


Visibility: 10 mi

Pressure: 30.07 "Hg

Humidity: 94%

Dew Point: 72 °F

Location of Cape CoralLocation

Past Weather in Cape Coral — Graph

°F

Cape Coral Temperature Yesterday

Maximum temperature yesterday: 91 °F (at 11:53 AM)
Minimum temperature yesterday: 76 °F (at 5:53 AM)
Average temperature yesterday: 82 °F

High & Low Weather Summary for the Past Weeks

 TemperatureHumidityPressure
High93 °F (Jun 23, 1:53 PM)97% (Jun 12, 6:53 AM)30.16 "Hg (Jun 12, 6:53 AM)
Low71 °F (Jun 21, 4:53 AM)45% (Jun 15, 4:53 PM)29.93 "Hg (Jun 13, 6:53 PM)
Average82 °F77%30.06 "Hg
* Reported Jun 11 7:53 PM — Jun 26 7:02 PM, Cape Coral, Weather by CustomWeather, © 2016

Note: Actual official high and low records may vary slightly from our data, if they occured in-between our weather recording intervals... More about our weather records

Advertising

Cape Coral Weather History for the Previous 24 Hours

Scroll right to see more
 ConditionsComfort  
Time TempWeatherWind HumidityBarometerVisibility
7:02 PM
Sun, Jun 26
74 °FBroken clouds.9 mph94%30.10 "Hg10 mi
6:53 PM75 °FThundershowers. Partly sunny.9 mph90%30.09 "Hg10 mi
6:00 PM76 °FStrong thunderstorms. Fog.16 mph94%30.06 "Hg2 mi
5:01 PM88 °FThunderstorms. Broken clouds.17 mph63%30.03 "Hg10 mi
3:53 PM90 °FMore clouds than sun.10 mph59%30.04 "Hg10 mi
2:53 PM93 °FBroken clouds.No wind49%30.05 "Hg10 mi
1:53 PM90 °FPartly sunny.No wind56%30.08 "Hg10 mi
12:53 PM89 °FPartly sunny.7 mph61%30.10 "Hg10 mi
11:53 AM91 °FPassing clouds.No wind54%30.11 "Hg10 mi
10:53 AM87 °FPassing clouds.5 mph63%30.11 "Hg10 mi
9:53 AM86 °FSunny.3 mph70%30.12 "Hg10 mi
8:53 AM83 °FSunny.7 mph79%30.11 "Hg10 mi
7:53 AM80 °FSunny.3 mph87%30.10 "Hg10 mi
6:53 AM76 °FClear.No wind97%30.08 "Hg10 mi
5:53 AM77 °FClear.No wind90%30.07 "Hg10 mi
4:53 AM78 °FClear.No wind87%30.06 "Hg10 mi
3:53 AM78 °FClear.3 mph90%30.06 "Hg10 mi
2:53 AM79 °FClear.5 mph84%30.07 "Hg10 mi
1:53 AM80 °FClear.No wind85%30.09 "Hg10 mi
12:53 AM80 °FClear.3 mph87%30.09 "Hg10 mi
11:53 PM
Sat, Jun 25
80 °FClear.3 mph90%30.11 "Hg10 mi
10:53 PM81 °FClear.3 mph88%30.10 "Hg10 mi
9:53 PM82 °FMostly cloudy.No wind82%30.08 "Hg10 mi
8:53 PM81 °FSunny.3 mph82%30.06 "Hg10 mi
Weather by CustomWeather, © 2016

See weather overviewHow to use our weather pages